Voltar ao catálogo

STARLINK-37923

AtivoComunicaçõesVLEO
NORAD 69949·PAYLOAD·🇺🇸 United States

Lançado Jul 9, 2026 de Cape Canaveral Space Force Station

Loading…

Próximas Passagens (próximas 24 horas)

TLE

AtualizadoSource: CelesTrak SupGP

Época: Sep 14, 2026, 21:27 UTC

1 69949C 26157G   26257.89423611 -.00002134  00000+0 -63062-4 0  2573
2 69949  53.1585   0.2424 0001199  85.3966  73.8832 15.34382056    14

Acompanhe STARLINK-37923 em tempo real com AllMySat

Download on the App Store